User: anonymous   Login
Location: Pilipovskiye Korichintsy
(49.1833°N, 27.4667°E)
Time: 19:10:08
(UTC+00:00)
Language:

CENTAUR R/B - Orbit

View from above orbital plane
View from above orbital plane
View from above satellite
View from above satellite

Ground track
Ground track

The orbit data is extracted from the following two-line orbital elements,

1 26906U 01040B   20261.74948693 0.00000000  00000-0  00000-0 0    02
2 26906  63.4533 163.5099 0455361 339.4847  20.5153 13.44062935    07
Epoch (UTC): 17 September 2020 17:59:15
Eccentricity: 0.0455361
inclination: 63.4533°
perigee height: 754 km
apogee height: 1434 km
right ascension of ascending node: 163.5099°
argument of perigee: 339.4847°
revolutions per day: 13.44062935
mean anomaly at epoch: 20.5153°
orbit number at epoch: 0

The dashed part of the orbit path shows where the satellite is in the earth's shadow,  

DLR